"startDT [UTC]","vpos","CH4 [ppm]","stdev(CH4) [ppm]","CO2 [ppm]","stdev(CO2) [ppm]","H2O_reported [%]","stdev(H2O_reported)","CavityPressure [torr]","CavityTemp [C]","OutletValve","CH4_dry [ppm]","CO2_dry [ppm]","DasTemp [C]","EtalonTemp [C]","WarmBoxTemp [C]","MPVPosition","T_ECpre [C]","T_EC1 [C]","T_EC2 [C]","p_inlet [hPa]","p_in [hPa]","p_out [hPa]","T_inlet [C]","RH_inlet [%]","dwpt_inlet [C]","T_vent [C]","RH_vent [%]","dwpt_vent [C]","flow_vent [l min-1]","flow_inlet [l min-1]","dwpt_sample [C]","T_room [C]"
2015-05-13 00:00:00,3.0,1.87689,0.00873,399.531,2.190,0.0571,0.0737,139.758,45.000,31052.30770,1.87946,399.994,32.445,45.069,45.001,0.00,0.09,-272.72,-272.78,-4,480,-3,22.2,6.0,-17.1,21.9,6.2,-17.0,5.73,1.89,-8.3,26.3
2015-05-13 00:01:00,3.0,1.87643,0.00048,397.227,0.074,0.0140,0.0022,139.992,45.000,30816.39896,1.87663,397.299,32.440,45.069,45.001,0.00,0.09,-272.72,-272.77,-4,480,-3,22.2,6.0,-17.1,21.9,6.2,-17.0,5.73,1.90,-8.3,26.4
2015-05-13 00:02:00,3.0,1.87629,0.00031,397.276,0.066,0.0140,0.0021,139.994,45.000,30763.71016,1.87663,397.338,32.438,45.069,45.000,0.00,0.09,-272.72,-272.77,-4,480,-3,22.2,6.0,-17.0,21.9,6.2,-16.9,5.73,1.88,-8.3,26.4
2015-05-13 00:03:00,3.0,1.87601,0.00032,397.513,0.059,0.0126,0.0016,139.999,45.000,30721.18884,1.87626,397.571,32.436,45.069,45.000,0.00,0.09,-272.72,-272.78,-4,481,-3,22.2,6.0,-17.0,21.9,6.2,-16.8,5.73,1.88,-8.3,26.4
2015-05-13 00:04:00,3.0,1.87606,0.00042,397.574,0.028,0.0108,0.0013,139.999,45.000,30686.52658,1.87623,397.624,32.436,45.069,45.000,0.00,0.09,-272.72,-272.78,-4,481,-3,22.2,6.1,-16.9,21.9,6.3,-16.8,5.73,1.87,-8.3,26.4
2015-05-13 00:05:00,3.0,1.87615,0.00028,397.631,0.023,0.0083,0.0015,140.000,45.000,30657.00458,1.87629,397.669,32.432,45.068,45.000,0.00,0.09,-272.71,-272.77,-4,481,-3,22.2,6.1,-16.8,21.9,6.3,-16.6,5.73,1.87,-8.3,26.4
2015-05-13 00:06:00,3.0,1.87619,0.00030,397.631,0.035,0.0071,0.0017,139.997,45.000,30632.95288,1.87631,397.666,32.433,45.068,45.000,0.00,0.09,-272.72,-272.78,-4,481,-3,22.3,6.1,-16.9,21.9,6.3,-16.8,5.73,1.88,-8.3,26.5
2015-05-13 00:07:00,3.0,1.87612,0.00042,397.638,0.037,0.0056,0.0018,140.003,45.000,30614.59028,1.87623,397.665,32.407,45.068,45.000,0.00,0.09,-272.72,-272.78,-4,481,-3,22.3,6.1,-16.8,21.9,6.3,-16.7,5.73,1.91,-8.3,26.4
2015-05-13 00:08:00,3.0,1.87624,0.00032,397.656,0.026,0.0046,0.0026,139.996,45.000,30595.70961,1.87634,397.679,32.397,45.069,45.000,0.00,0.09,-272.71,-272.78,-4,482,-3,22.3,6.1,-16.9,22.0,6.3,-16.8,5.73,1.92,-8.3,26.5
2015-05-13 00:09:00,3.0,1.87646,0.00030,397.663,0.033,0.0031,0.0018,140.001,45.000,30583.30720,1.87650,397.676,32.377,45.068,45.000,0.00,0.09,-272.72,-272.77,-4,482,-3,22.3,6.1,-16.9,22.0,6.2,-16.8,5.73,1.93,-8.3,26.4
2015-05-13 00:10:00,3.0,1.87642,0.00035,397.660,0.030,0.0032,0.0018,139.996,45.000,30571.80857,1.87647,397.677,32.397,45.068,45.000,0.00,0.09,-272.72,-272.78,-4,482,-3,22.3,6.0,-17.0,22.0,6.2,-16.9,5.73,1.93,-8.3,26.4
2015-05-13 00:11:00,3.0,1.87652,0.00041,397.651,0.022,0.0026,0.0015,140.002,45.000,30565.87721,1.87658,397.664,32.400,45.068,45.000,0.00,0.09,-272.72,-272.78,-4,483,-3,22.3,6.1,-16.9,22.0,6.3,-16.7,5.73,1.92,-8.3,26.5
2015-05-13 00:12:00,3.0,1.87628,0.00041,397.654,0.029,0.0024,0.0016,139.998,45.000,30559.90856,1.87632,397.664,32.386,45.068,45.000,0.00,0.09,-272.71,-272.77,-4,483,-3,22.3,6.1,-16.9,22.0,6.2,-16.8,5.73,1.91,-8.3,26.4
2015-05-13 00:13:00,3.0,1.87642,0.00032,397.655,0.022,0.0020,0.0015,140.003,45.000,30556.15809,1.87646,397.666,32.395,45.068,45.000,0.00,0.09,-272.72,-272.78,-4,484,-3,22.3,6.0,-17.0,22.0,6.2,-16.9,5.73,1.89,-8.3,26.4
2015-05-13 00:14:00,3.0,1.87638,0.00039,397.666,0.025,0.0025,0.0014,140.000,45.000,30550.61550,1.87643,397.677,32.405,45.068,45.000,0.00,0.09,-272.72,-272.78,-4,484,-3,22.3,6.0,-17.0,22.0,6.2,-16.9,5.73,1.87,-8.3,26.4
2015-05-13 00:15:00,3.0,1.87642,0.00036,397.660,0.028,0.0018,0.0018,139.997,45.000,30545.83255,1.87644,397.669,32.415,45.068,45.000,0.00,0.09,-272.72,-272.77,-4,484,-3,22.3,6.1,-16.9,22.0,6.2,-16.8,5.73,1.87,-8.3,26.4
2015-05-13 00:16:00,3.0,1.87650,0.00028,397.679,0.028,0.0014,0.0018,139.999,45.000,30543.12612,1.87653,397.686,32.427,45.068,45.000,0.00,0.09,-272.72,-272.77,-4,485,-3,22.3,6.1,-16.8,22.0,6.2,-16.7,5.73,1.87,-8.3,26.4
2015-05-13 00:17:00,3.0,1.87638,0.00027,397.646,0.030,0.0008,0.0014,140.000,45.000,30541.93310,1.87641,397.651,32.438,45.068,45.000,0.00,0.09,-272.72,-272.77,-4,485,-3,22.3,6.1,-16.8,22.0,6.3,-16.6,5.73,1.89,-8.3,26.4
2015-05-13 00:18:00,3.0,1.87623,0.00038,397.655,0.026,0.0002,0.0014,140.002,45.000,30539.95340,1.87625,397.655,32.446,45.068,45.000,0.00,0.09,-272.72,-272.77,-4,485,-3,22.3,6.1,-16.8,22.0,6.3,-16.7,5.73,1.91,-8.3,26.5
2015-05-13 00:19:00,3.0,1.87632,0.00029,397.662,0.031,0.0013,0.0023,139.999,45.000,30538.77332,1.87635,397.670,32.480,45.068,45.000,0.00,0.09,-272.72,-272.77,-4,485,-3,22.3,6.2,-16.7,22.1,6.3,-16.5,5.73,1.92,-8.3,26.4
2015-05-13 00:20:00,0.0,1.90739,0.00398,403.732,1.881,0.1851,0.0678,140.279,45.000,33588.88714,1.90917,404.436,32.455,45.068,45.000,0.00,0.09,-272.72,-272.79,-4,975,-3,22.3,6.1,-16.8,22.1,6.3,-16.6,5.73,1.91,-8.3,26.4
2015-05-13 00:21:00,0.0,1.90858,0.00031,404.484,0.030,0.2173,0.0016,140.005,45.000,33724.41711,1.91270,405.546,32.454,45.068,45.000,0.00,0.09,-272.72,-272.78,-5,976,-3,22.3,6.1,-16.8,22.1,6.3,-16.7,5.73,1.96,-8.4,26.4
2015-05-13 00:22:00,0.0,1.90835,0.00033,404.478,0.031,0.2206,0.0018,140.001,45.000,33781.09857,1.91252,405.557,32.457,45.068,45.000,0.00,0.09,-272.71,-272.77,-4,976,-3,22.3,6.1,-16.8,22.1,6.3,-16.6,5.73,1.93,-8.4,26.4
2015-05-13 00:23:00,0.0,1.90847,0.00033,404.479,0.030,0.2199,0.0016,140.001,45.000,33826.35275,1.91261,405.553,32.467,45.068,45.000,0.00,0.09,-272.72,-272.78,-4,976,-3,22.3,6.1,-16.8,22.1,6.3,-16.6,5.73,1.89,-8.4,26.4
2015-05-13 00:24:00,0.0,1.90811,0.00041,404.448,0.030,0.2213,0.0020,140.001,45.000,33862.37670,1.91231,405.532,32.481,45.068,45.000,0.00,0.09,-272.72,-272.78,-4,975,-3,22.3,6.1,-16.8,22.1,6.3,-16.6,5.73,1.88,-8.4,26.4
2015-05-13 00:25:00,0.0,1.90837,0.00042,404.484,0.032,0.2200,0.0018,140.001,45.000,33891.69644,1.91249,405.559,32.500,45.068,45.000,0.00,0.09,-272.72,-272.77,-5,976,-3,22.3,6.1,-16.8,22.1,6.3,-16.7,5.73,1.92,-8.3,26.4
2015-05-13 00:26:00,0.0,1.90849,0.00035,404.466,0.029,0.2198,0.0017,140.001,45.000,33914.79008,1.91266,405.541,32.500,45.068,45.000,0.00,0.09,-272.72,-272.77,-5,976,-3,22.4,6.1,-16.8,22.1,6.3,-16.7,5.73,1.95,-8.3,26.4
2015-05-13 00:27:00,0.0,1.90816,0.00039,404.424,0.028,0.2236,0.0025,139.998,45.000,33936.23539,1.91239,405.520,32.499,45.068,45.000,0.00,0.09,-272.73,-272.78,-4,977,-3,22.4,6.1,-16.7,22.1,6.3,-16.6,5.73,1.97,-8.3,26.4
2015-05-13 00:28:00,0.0,1.90825,0.00027,404.434,0.034,0.2163,0.0023,139.999,45.000,33956.40478,1.91232,405.492,32.502,45.068,45.000,0.00,0.09,-272.72,-272.78,-5,977,-3,22.4,6.0,-17.1,22.1,6.2,-16.8,5.73,1.95,-8.4,26.4
2015-05-13 00:29:00,0.0,1.90846,0.00041,404.435,0.025,0.2157,0.0020,139.999,45.000,33971.69997,1.91253,405.487,32.500,45.068,45.000,0.00,0.09,-272.72,-272.77,-4,976,-3,22.4,5.9,-17.1,22.1,6.1,-16.9,5.73,1.92,-8.3,26.4
2015-05-13 00:30:00,0.0,1.90848,0.00033,404.449,0.048,0.2182,0.0022,140.001,45.000,33983.05451,1.91260,405.515,32.500,45.068,45.000,0.00,0.09,-272.72,-272.78,-4,976,-3,22.4,6.0,-16.9,22.1,6.2,-16.8,5.73,1.89,-8.3,26.4
2015-05-13 00:31:00,0.0,1.90838,0.00052,404.450,0.026,0.2215,0.0016,140.001,45.000,33994.85113,1.91258,405.533,32.500,45.068,45.000,0.00,0.09,-272.72,-272.78,-4,976,-3,22.4,6.1,-16.8,22.1,6.2,-16.7,5.73,1.89,-8.3,26.4
2015-05-13 00:32:00,0.0,1.90824,0.00041,404.429,0.033,0.2195,0.0016,140.000,45.000,34004.41164,1.91237,405.503,32.500,45.068,45.000,0.00,0.09,-272.71,-272.77,-5,976,-3,22.4,6.0,-16.9,22.1,6.2,-16.8,5.73,1.92,-8.3,26.4
2015-05-13 00:33:00,0.0,1.90834,0.00035,404.437,0.028,0.2186,0.0019,140.003,45.000,34013.30679,1.91244,405.506,32.498,45.068,45.000,0.00,0.09,-272.72,-272.78,-5,977,-3,22.4,6.0,-17.0,22.1,6.2,-16.8,5.73,1.96,-8.3,26.4
2015-05-13 00:34:00,0.0,1.90832,0.00042,404.459,0.034,0.2182,0.0016,140.000,45.000,34020.64144,1.91245,405.526,32.500,45.068,45.000,0.00,0.09,-272.72,-272.79,-5,977,-3,22.4,6.0,-16.9,22.1,6.2,-16.8,5.73,1.97,-8.3,26.5
2015-05-13 00:35:00,0.0,1.90841,0.00049,404.452,0.025,0.2207,0.0011,139.999,45.000,34026.30075,1.91257,405.531,32.501,45.068,45.000,0.00,0.09,-272.72,-272.77,-5,977,-3,22.4,6.1,-16.8,22.1,6.2,-16.7,5.73,1.94,-8.3,26.5
2015-05-13 00:36:00,0.0,1.90844,0.00024,404.460,0.026,0.2210,0.0012,140.000,45.000,34032.31247,1.91263,405.541,32.502,45.068,45.000,0.00,0.09,-272.72,-272.78,-4,977,-3,22.4,6.1,-16.8,22.1,6.3,-16.7,5.73,1.91,-8.3,26.4
2015-05-13 00:37:00,0.0,1.90835,0.00041,404.450,0.026,0.2207,0.0013,140.000,45.000,34038.33398,1.91251,405.529,32.500,45.068,45.000,0.00,0.09,-272.72,-272.79,-4,976,-3,22.4,6.1,-16.8,22.1,6.3,-16.7,5.73,1.88,-8.3,26.4
2015-05-13 00:38:00,0.0,1.90783,0.00036,404.439,0.031,0.2174,0.0012,140.000,45.000,34046.04155,1.91195,405.503,32.508,45.068,45.000,0.00,0.09,-272.72,-272.77,-4,976,-3,22.4,6.0,-17.0,22.1,6.2,-16.8,5.73,1.89,-8.3,26.5
2015-05-13 00:39:00,0.0,1.90831,0.00033,404.463,0.026,0.2182,0.0021,139.999,45.000,34044.88533,1.91242,405.530,32.517,45.068,45.000,0.00,0.09,-272.72,-272.77,-4,976,-3,22.4,6.0,-16.9,22.1,6.2,-16.8,5.73,1.92,-8.3,26.5
2015-05-13 00:40:00,0.0,1.90840,0.00032,404.446,0.031,0.2208,0.0017,140.002,45.000,34049.15841,1.91257,405.525,32.535,45.068,45.000,0.00,0.09,-272.72,-272.77,-5,977,-3,22.4,6.1,-16.8,22.1,6.2,-16.7,5.73,1.96,-8.3,26.5
2015-05-13 00:41:00,0.0,1.90826,0.00031,404.435,0.025,0.2221,0.0010,140.002,45.000,34052.47483,1.91246,405.520,32.518,45.068,45.000,0.00,0.09,-272.72,-272.78,-5,977,-3,22.4,6.1,-16.8,22.1,6.2,-16.7,5.73,1.97,-8.3,26.5
2015-05-13 00:42:00,0.0,1.90820,0.00043,404.433,0.037,0.2227,0.0012,139.999,45.000,34054.16540,1.91239,405.522,32.507,45.068,45.000,0.00,0.09,-272.71,-272.77,-5,977,-3,22.4,6.1,-16.7,22.1,6.3,-16.6,5.73,1.94,-8.3,26.5
2015-05-13 00:43:00,0.0,1.90839,0.00030,404.440,0.030,0.2238,0.0020,139.998,45.000,34055.78839,1.91265,405.533,32.502,45.068,45.000,0.00,0.09,-272.72,-272.77,-4,977,-3,22.4,6.1,-16.7,22.1,6.3,-16.6,5.73,1.91,-8.3,26.5
2015-05-13 00:44:00,0.0,1.90820,0.00034,404.429,0.028,0.2240,0.0021,139.998,45.000,34059.47481,1.91240,405.525,32.501,45.068,45.000,0.00,0.09,-272.72,-272.78,-5,976,-3,22.4,6.2,-16.6,22.1,6.3,-16.5,5.73,1.89,-8.3,26.5
2015-05-13 00:45:00,0.0,1.90816,0.00040,404.438,0.028,0.2252,0.0013,139.998,45.000,34058.83924,1.91242,405.539,32.513,45.068,45.000,0.00,0.09,-272.71,-272.77,-5,976,-3,22.4,6.2,-16.6,22.1,6.4,-16.5,5.73,1.90,-8.3,26.5
2015-05-13 00:46:00,0.0,1.90819,0.00031,404.445,0.023,0.2261,0.0016,140.001,45.000,34061.24415,1.91247,405.552,32.521,45.068,45.000,0.00,0.09,-272.71,-272.77,-5,977,-3,22.4,6.2,-16.5,22.1,6.4,-16.4,5.73,1.93,-8.3,26.5
2015-05-13 00:47:00,0.0,1.90808,0.00036,404.430,0.038,0.2293,0.0019,140.003,45.000,34062.57892,1.91240,405.551,32.536,45.068,45.000,0.00,0.09,-272.72,-272.78,-5,977,-3,22.4,6.3,-16.4,22.1,6.4,-16.3,5.73,1.96,-8.3,26.5
2015-05-13 00:48:00,0.0,1.90824,0.00029,404.445,0.032,0.2291,0.0029,139.998,45.000,34062.60975,1.91258,405.566,32.517,45.068,45.000,0.00,0.09,-272.71,-272.78,-5,978,-3,22.4,6.3,-16.4,22.1,6.5,-16.2,5.73,1.97,-8.3,26.6
2015-05-13 00:49:00,0.0,1.90785,0.00031,404.437,0.026,0.2293,0.0026,140.000,45.000,34067.61237,1.91220,405.556,32.501,45.068,45.000,0.00,0.09,-272.71,-272.77,-4,978,-3,22.4,6.3,-16.4,22.1,6.4,-16.3,5.73,1.95,-8.3,26.5
2015-05-13 00:50:00,0.0,1.90797,0.00039,404.435,0.035,0.2310,0.0023,140.003,45.000,34066.18597,1.91233,405.564,32.500,45.068,45.000,0.00,0.09,-272.72,-272.78,-4,977,-3,22.5,6.3,-16.3,22.1,6.5,-16.2,5.73,1.91,-8.3,26.5
2015-05-13 00:51:00,0.0,1.90810,0.00039,404.428,0.034,0.2305,0.0032,139.999,45.000,34066.69501,1.91246,405.558,32.502,45.068,45.000,0.00,0.09,-272.72,-272.78,-4,977,-3,22.4,6.3,-16.4,22.1,6.5,-16.2,5.73,1.89,-8.3,26.5
2015-05-13 00:52:00,0.0,1.90799,0.00030,404.460,0.025,0.2212,0.0020,140.003,45.000,34068.63180,1.91215,405.542,32.511,45.068,45.000,0.00,0.09,-272.72,-272.78,-5,976,-3,22.4,6.1,-16.8,22.1,6.3,-16.6,5.73,1.89,-8.3,26.6
2015-05-13 00:53:00,0.0,1.90819,0.00037,404.448,0.023,0.2237,0.0030,140.003,45.000,34068.36312,1.91241,405.541,32.524,45.068,45.000,0.00,0.09,-272.72,-272.77,-5,977,-3,22.5,6.1,-16.7,22.1,6.3,-16.6,5.73,1.92,-8.3,26.6
2015-05-13 00:54:00,0.0,1.90845,0.00029,404.449,0.030,0.2265,0.0018,140.000,45.000,34067.86085,1.91270,405.558,32.562,45.068,45.000,0.00,0.09,-272.72,-272.78,-5,978,-3,22.4,6.2,-16.6,22.1,6.4,-16.5,5.73,1.96,-8.3,26.7
2015-05-13 00:55:00,0.0,1.90814,0.00047,404.426,0.039,0.2271,0.0019,139.999,45.000,34069.67065,1.91250,405.537,32.561,45.068,45.000,0.00,0.09,-272.72,-272.77,-5,978,-3,22.4,6.2,-16.5,22.2,6.4,-16.4,5.73,1.97,-8.3,26.6
2015-05-13 00:56:00,0.0,1.90819,0.00039,404.444,0.039,0.2239,0.0018,139.998,45.000,34069.35413,1.91235,405.539,32.562,45.068,45.000,0.00,0.09,-272.72,-272.77,-5,977,-3,22.5,6.1,-16.7,22.2,6.3,-16.5,5.73,1.95,-8.3,26.6
2015-05-13 00:57:00,0.0,1.90828,0.00027,404.437,0.038,0.2235,0.0022,140.000,45.000,34068.99961,1.91253,405.531,32.562,45.068,45.000,0.00,0.09,-272.72,-272.78,-4,977,-3,22.5,6.1,-16.7,22.2,6.3,-16.6,5.73,1.91,-8.3,26.6
2015-05-13 00:58:00,0.0,1.90813,0.00034,404.417,0.021,0.2213,0.0019,139.999,45.000,34070.61795,1.91235,405.499,32.563,45.068,45.000,0.00,0.09,-272.72,-272.77,-4,977,-3,22.5,6.1,-16.8,22.2,6.2,-16.6,5.73,1.89,-8.3,26.6
2015-05-13 00:59:00,0.0,1.90828,0.00034,404.429,0.030,0.2208,0.0016,140.002,45.000,34071.96185,1.91242,405.509,32.562,45.068,45.000,0.00,0.09,-272.71,-272.77,-5,977,-3,22.5,6.0,-16.9,22.2,6.2,-16.7,5.73,1.89,-8.3,26.6
2015-05-13 01:00:00,0.0,1.90830,0.00036,404.432,0.027,0.2187,0.0017,139.999,45.000,34070.93645,1.91245,405.501,32.542,45.068,45.000,0.00,0.09,-272.72,-272.78,-5,978,-3,22.5,5.9,-17.0,22.2,6.1,-16.8,5.73,1.92,-8.3,26.5
2015-05-13 01:01:00,0.0,1.90813,0.00039,404.406,0.038,0.2201,0.0023,139.998,45.000,34071.12825,1.91227,405.483,32.551,45.068,45.000,0.00,0.09,-272.72,-272.79,-5,978,-3,22.5,6.0,-16.9,22.2,6.1,-16.8,5.73,1.95,-8.3,26.6
2015-05-13 01:02:00,0.0,1.90805,0.00036,404.430,0.038,0.2220,0.0020,139.999,45.000,34071.16477,1.91224,405.514,32.558,45.068,45.000,0.00,0.09,-272.71,-272.78,-4,978,-3,22.5,6.1,-16.8,22.2,6.2,-16.7,5.73,1.97,-8.3,26.6
2015-05-13 01:03:00,0.0,1.90791,0.00022,404.417,0.041,0.2209,0.0020,140.001,45.000,34072.13330,1.91208,405.497,32.563,45.068,45.000,0.00,0.09,-272.72,-272.78,-4,977,-3,22.5,6.0,-16.8,22.2,6.2,-16.7,5.73,1.95,-8.3,26.5
2015-05-13 01:04:00,0.0,1.90802,0.00030,404.423,0.036,0.2226,0.0024,139.998,45.000,34072.21314,1.91223,405.513,32.565,45.068,45.000,0.00,0.09,-272.72,-272.78,-4,977,-3,22.5,6.1,-16.8,22.2,6.2,-16.7,5.73,1.91,-8.3,26.6
2015-05-13 01:05:00,0.0,1.90817,0.00037,404.425,0.051,0.2217,0.0022,139.999,45.000,34071.91934,1.91233,405.507,32.566,45.068,45.000,0.00,0.09,-272.72,-272.78,-5,977,-3,22.5,6.1,-16.8,22.2,6.2,-16.7,5.73,1.88,-8.3,26.6
2015-05-13 01:06:00,0.0,1.90799,0.00035,404.421,0.034,0.2206,0.0021,140.000,45.000,34072.59739,1.91217,405.501,32.578,45.068,45.000,0.00,0.09,-272.71,-272.78,-5,977,-3,22.5,6.0,-16.8,22.2,6.2,-16.7,5.73,1.89,-8.3,26.5
2015-05-13 01:07:00,0.0,1.90827,0.00029,404.427,0.043,0.2214,0.0022,140.002,45.000,34072.53231,1.91246,405.509,32.594,45.068,45.000,0.00,0.09,-272.72,-272.77,-5,978,-3,22.5,6.0,-16.8,22.2,6.2,-16.7,5.73,1.92,-8.3,26.6
2015-05-13 01:08:00,0.0,1.90816,0.00028,404.417,0.030,0.2232,0.0017,139.998,45.000,34070.75503,1.91238,405.509,32.598,45.068,45.000,0.00,0.09,-272.72,-272.77,-5,977,-3,22.5,6.1,-16.7,22.2,6.2,-16.6,5.73,1.96,-8.3,26.6
2015-05-13 01:09:00,0.0,1.90804,0.00034,404.423,0.029,0.2245,0.0018,139.999,45.000,34071.66602,1.91229,405.522,32.582,45.068,45.000,0.00,0.09,-272.72,-272.77,-5,978,-3,22.5,6.1,-16.7,22.2,6.3,-16.6,5.73,1.97,-8.3,26.6
2015-05-13 01:10:00,0.0,1.90812,0.00030,404.394,0.053,0.2264,0.0020,140.000,45.000,34071.94073,1.91238,405.501,32.612,45.068,45.000,0.00,0.09,-272.72,-272.78,-4,977,-3,22.5,6.2,-16.6,22.2,6.3,-16.5,5.73,1.95,-8.2,26.6
2015-05-13 01:11:00,0.0,1.90826,0.00035,404.407,0.036,0.2252,0.0018,140.000,45.000,34071.63265,1.91250,405.508,32.594,45.068,45.000,0.00,0.09,-272.72,-272.78,-4,977,-3,22.5,6.1,-16.6,22.2,6.3,-16.5,5.73,1.91,-8.2,26.6
2015-05-13 01:12:00,0.0,1.90794,0.00037,404.406,0.032,0.2244,0.0018,139.999,45.000,34073.50362,1.91219,405.506,32.612,45.068,45.000,0.00,0.09,-272.72,-272.77,-5,977,-4,22.5,6.1,-16.6,22.2,6.3,-16.5,5.73,1.88,-8.3,26.6
2015-05-13 01:13:00,0.0,1.90794,0.00032,404.391,0.044,0.2273,0.0032,140.000,45.000,34071.87548,1.91221,405.501,32.625,45.068,45.000,0.00,0.09,-272.72,-272.78,-5,977,-3,22.5,6.2,-16.5,22.2,6.4,-16.4,5.73,1.89,-8.2,26.6
2015-05-13 01:14:00,0.0,1.90780,0.00043,404.402,0.034,0.2291,0.0032,140.000,45.000,34073.84254,1.91214,405.522,32.626,45.068,45.000,0.00,0.09,-272.72,-272.78,-5,978,-3,22.5,6.2,-16.5,22.2,6.4,-16.3,5.73,1.92,-8.2,26.6
2015-05-13 01:15:00,0.0,1.90783,0.00019,404.402,0.034,0.2254,0.0021,139.995,45.000,34072.81575,1.91207,405.506,32.624,45.068,45.000,0.00,0.09,-272.72,-272.78,-5,977,-3,22.5,6.1,-16.6,22.2,6.3,-16.5,5.73,1.96,-8.3,26.7
2015-05-13 01:16:00,0.0,1.90807,0.00026,404.411,0.025,0.2248,0.0017,139.999,45.000,34073.41173,1.91231,405.510,32.621,45.068,45.000,0.00,0.09,-272.72,-272.77,-5,978,-3,22.5,6.1,-16.7,22.2,6.3,-16.5,5.73,1.97,-8.2,26.7
2015-05-13 01:17:00,0.0,1.90788,0.00035,404.407,0.026,0.2287,0.0025,140.001,45.000,34072.40643,1.91220,405.526,32.607,45.068,45.000,0.00,0.09,-272.72,-272.78,-5,977,-3,22.5,6.2,-16.5,22.2,6.4,-16.4,5.73,1.94,-8.2,26.6
2015-05-13 01:18:00,0.0,1.90799,0.00037,404.423,0.039,0.2287,0.0019,139.998,45.000,34071.22366,1.91230,405.540,32.607,45.068,45.000,0.00,0.09,-272.72,-272.78,-5,977,-3,22.5,6.2,-16.5,22.2,6.4,-16.3,5.73,1.90,-8.3,26.6
2015-05-13 01:19:00,0.0,1.90776,0.00027,404.412,0.036,0.2285,0.0016,139.996,45.000,34071.93220,1.91208,405.531,32.620,45.068,45.000,0.00,0.09,-272.71,-272.77,-5,977,-3,22.5,6.2,-16.5,22.2,6.4,-16.4,5.73,1.88,-8.2,26.6
2015-05-13 01:20:00,0.0,1.90797,0.00046,404.413,0.041,0.2246,0.0015,140.002,45.000,34074.56451,1.91220,405.513,32.609,45.068,45.000,0.00,0.09,-272.72,-272.77,-5,977,-3,22.5,6.1,-16.7,22.2,6.3,-16.5,5.73,1.89,-8.2,26.6
2015-05-13 01:21:00,0.0,1.90765,0.00050,404.418,0.019,0.2271,0.0016,140.000,45.000,34076.29435,1.91194,405.528,32.605,45.068,45.000,0.00,0.09,-272.72,-272.78,-5,978,-3,22.5,6.2,-16.6,22.2,6.3,-16.4,5.73,1.92,-8.2,26.6
2015-05-13 01:22:00,0.0,1.90796,0.00038,404.411,0.039,0.2283,0.0014,139.999,45.000,34074.83288,1.91228,405.525,32.610,45.068,45.000,0.00,0.09,-272.72,-272.78,-5,978,-3,22.5,6.2,-16.5,22.2,6.4,-16.3,5.73,1.97,-8.2,26.5
2015-05-13 01:23:00,0.0,1.90778,0.00036,404.394,0.036,0.2298,0.0016,139.999,45.000,34074.83621,1.91214,405.521,32.609,45.068,45.000,0.00,0.09,-272.72,-272.77,-5,978,-3,22.5,6.2,-16.4,22.2,6.4,-16.3,5.73,1.97,-8.2,26.6
2015-05-13 01:24:00,0.0,1.90790,0.00028,404.407,0.031,0.2261,0.0019,140.001,45.000,34074.96312,1.91215,405.511,32.600,45.068,45.000,0.00,0.09,-272.73,-272.78,-4,977,-3,22.5,6.1,-16.6,22.2,6.3,-16.5,5.73,1.94,-8.2,26.6
2015-05-13 01:25:00,0.0,1.90807,0.00029,404.419,0.026,0.2258,0.0016,140.004,45.000,34073.93540,1.91233,405.523,32.615,45.068,45.000,0.00,0.09,-272.72,-272.78,-4,977,-3,22.5,6.1,-16.6,22.2,6.3,-16.5,5.73,1.91,-8.2,26.6
2015-05-13 01:26:00,0.0,1.90795,0.00036,404.382,0.040,0.2246,0.0024,139.997,45.000,34073.14743,1.91221,405.482,32.601,45.068,45.000,0.00,0.09,-272.71,-272.77,-5,977,-3,22.5,6.1,-16.7,22.2,6.3,-16.5,5.73,1.89,-8.2,26.6
2015-05-13 01:27:00,0.0,1.90809,0.00040,404.405,0.040,0.2213,0.0022,140.000,45.000,34072.97656,1.91225,405.488,32.607,45.068,45.000,0.00,0.09,-272.72,-272.78,-5,977,-3,22.5,6.0,-16.8,22.2,6.2,-16.7,5.73,1.89,-8.3,26.6
2015-05-13 01:28:00,0.0,1.90805,0.00030,404.436,0.023,0.2213,0.0019,139.999,45.000,34069.90227,1.91226,405.517,32.619,45.068,45.000,0.00,0.09,-272.72,-272.78,-5,978,-3,22.5,6.0,-16.9,22.2,6.2,-16.7,5.73,1.92,-8.2,26.6
2015-05-13 01:29:00,0.0,1.90816,0.00031,404.443,0.025,0.2203,0.0027,139.999,45.000,34071.04841,1.91229,405.522,32.616,45.068,45.000,0.00,0.09,-272.71,-272.78,-5,978,-3,22.5,6.0,-16.9,22.2,6.2,-16.7,5.73,1.96,-8.2,26.6
2015-05-13 01:30:00,0.0,1.90810,0.00028,404.406,0.027,0.2235,0.0025,140.002,45.000,34072.51359,1.91232,405.499,32.608,45.068,45.000,0.00,0.09,-272.72,-272.78,-5,978,-3,22.5,6.1,-16.8,22.2,6.2,-16.7,5.73,1.97,-8.2,26.6
2015-05-13 01:31:00,0.0,1.90795,0.00028,404.405,0.033,0.2231,0.0018,139.998,45.000,34072.00781,1.91217,405.495,32.605,45.068,45.000,0.00,0.09,-272.72,-272.78,-5,977,-3,22.5,6.1,-16.8,22.2,6.2,-16.6,5.73,1.96,-8.2,26.6
2015-05-13 01:32:00,0.0,1.90784,0.00041,404.398,0.038,0.2227,0.0014,140.003,45.000,34075.17586,1.91202,405.487,32.611,45.068,45.000,0.00,0.09,-272.72,-272.77,-5,977,-3,22.5,6.0,-16.8,22.2,6.2,-16.7,5.73,1.90,-8.2,26.6
2015-05-13 01:33:00,0.0,1.90811,0.00033,404.424,0.034,0.2233,0.0022,140.001,45.000,34072.37810,1.91232,405.516,32.614,45.068,45.000,0.00,0.09,-272.72,-272.77,-5,977,-3,22.5,6.1,-16.8,22.2,6.2,-16.7,5.73,1.88,-8.2,26.6
2015-05-13 01:34:00,0.0,1.90803,0.00045,404.410,0.031,0.2251,0.0025,139.999,45.000,34071.61395,1.91229,405.511,32.620,45.068,45.000,0.00,0.09,-272.72,-272.78,-5,978,-3,22.5,6.1,-16.7,22.2,6.3,-16.6,5.73,1.89,-8.2,26.5
2015-05-13 01:35:00,0.0,1.90811,0.00049,404.416,0.033,0.2223,0.0016,140.003,45.000,34075.17065,1.91232,405.503,32.619,45.068,45.000,0.00,0.09,-272.72,-272.77,-5,978,-3,22.5,6.0,-16.8,22.2,6.2,-16.7,5.73,1.92,-8.2,26.5
2015-05-13 01:36:00,0.0,1.90808,0.00033,404.368,0.033,0.2278,0.0019,139.998,45.000,34072.81924,1.91236,405.482,32.618,45.068,45.000,0.00,0.09,-272.72,-272.77,-5,978,-3,22.5,6.2,-16.6,22.2,6.3,-16.4,5.73,1.96,-8.2,26.5
2015-05-13 01:37:00,0.0,1.90795,0.00048,404.400,0.035,0.2256,0.0017,139.999,45.000,34072.71278,1.91219,405.502,32.614,45.068,45.000,0.00,0.09,-272.72,-272.78,-5,977,-3,22.5,6.1,-16.6,22.2,6.3,-16.5,5.73,1.97,-8.2,26.5
2015-05-13 01:38:00,0.0,1.90812,0.00039,404.405,0.026,0.2215,0.0019,140.001,45.000,34073.50444,1.91234,405.488,32.623,45.068,45.000,0.00,0.09,-272.72,-272.77,-5,977,-3,22.5,6.0,-16.9,22.2,6.2,-16.7,5.73,1.95,-8.2,26.5
2015-05-13 01:39:00,0.0,1.90783,0.00033,404.412,0.031,0.2204,0.0024,139.997,45.000,34074.31690,1.91199,405.490,32.625,45.068,45.000,0.00,0.09,-272.72,-272.77,-5,977,-3,22.5,6.0,-17.0,22.2,6.1,-16.8,5.73,1.90,-8.2,26.5
2015-05-13 01:40:00,0.0,1.90807,0.00032,404.394,0.024,0.2235,0.0017,139.999,45.000,34072.51009,1.91230,405.487,32.627,45.068,45.000,0.00,0.09,-272.71,-272.78,-5,978,-3,22.5,6.0,-16.8,22.2,6.2,-16.7,5.73,1.88,-8.2,26.6
2015-05-13 01:41:00,0.0,1.90776,0.00023,404.401,0.030,0.2243,0.0022,139.999,45.000,34077.57801,1.91200,405.499,32.625,45.068,45.000,0.00,0.09,-272.72,-272.78,-5,978,-3,22.5,6.1,-16.7,22.2,6.3,-16.6,5.73,1.89,-8.2,26.6
2015-05-13 01:42:00,0.0,1.90785,0.00047,404.384,0.030,0.2234,0.0018,139.999,45.000,34077.66799,1.91207,405.476,32.621,45.068,45.000,0.00,0.09,-272.72,-272.78,-5,978,-3,22.5,6.1,-16.8,22.2,6.3,-16.6,5.73,1.92,-8.2,26.6
2015-05-13 01:43:00,0.0,1.90772,0.00037,404.380,0.038,0.2265,0.0022,139.999,45.000,34077.99834,1.91201,405.489,32.601,45.068,45.000,0.00,0.09,-272.71,-272.77,-5,977,-3,22.5,6.1,-16.6,22.2,6.3,-16.5,5.73,1.95,-8.2,26.6
2015-05-13 01:44:00,0.0,1.90776,0.00032,404.360,0.031,0.2299,0.0026,140.000,45.000,34077.49795,1.91205,405.482,32.569,45.068,45.000,0.00,0.09,-272.72,-272.78,-5,977,-3,22.5,6.3,-16.4,22.2,6.4,-16.3,5.73,1.96,-8.2,26.6
2015-05-13 01:45:00,0.0,1.90759,0.00040,404.373,0.027,0.2300,0.0025,140.001,45.000,34078.56130,1.91197,405.498,32.563,45.068,45.000,0.00,0.09,-272.72,-272.78,-5,977,-3,22.5,6.2,-16.4,22.2,6.4,-16.3,5.73,1.95,-8.2,26.6
2015-05-13 01:46:00,0.0,1.90761,0.00038,404.388,0.036,0.2255,0.0020,140.000,45.000,34079.12098,1.91187,405.492,32.562,45.069,45.000,0.00,0.09,-272.72,-272.77,-5,978,-3,22.5,6.1,-16.7,22.2,6.3,-16.5,5.73,1.92,-8.2,26.7